Location: Johnson City
(36.3130°N, 82.3540°W)
Time: 07:00:33
(UTC-04:00)

Tiangong 1 - Visible Passes

Search period start: 26 September 2017 00:00
Search period end: 06 October 2017 00:00
Orbit: 303 x 327 km, 42.8° (Epoch: 26 September)

Date Brightness Start Highest point End Pass type
(mag) Time Alt. Az. Time Alt. Az. Time Alt. Az.
26 Sep 2.4 06:36:07 15° WSW 06:37:10 18° SW 06:39:07 10° SSE visible
01 Oct 3.6 20:46:07 10° SSW 20:46:10 10° SSW 20:46:10 10° SSW visible
02 Oct 3.5 20:58:15 10° SW 20:58:52 15° SW 20:58:52 15° SW visible
03 Oct 2.5 19:36:37 10° S 19:38:32 18° SE 19:40:26 10° E visible
03 Oct 4.0 21:10:51 10° W 21:11:18 14° W 21:11:18 14° W visible
04 Oct 1.1 19:48:17 10° SW 19:50:51 44° SSE 19:52:45 16° E visible
05 Oct 0.8 20:00:32 10° WSW 20:03:12 71° NNW 20:04:45 22° ENE visible
